Weather History for Pauls Valley, OK

Change the Weather History Date:

Thursday, May 16, 2013

  Actual Average (KADH) Record (KADH)
Temperature  
Mean Temperature 64 °F -  
Max Temperature 68 °F 82 °F 92 °F (1931)
Min Temperature 60 °F 58 °F 42 °F (2011)
Degree Days  
Heating Degree Days 1    
Growing Degree Days 14 (Base 50)    
Moisture  
Dew Point 61 °F    
Average Humidity 91    
Maximum Humidity 100    
Minimum Humidity 78    
Precipitation  
Precipitation 0.13 in - - ()
Sea Level Pressure  
Sea Level Pressure 29.82 in    
Wind  
Wind Speed 6 mph (ESE)    
Max Wind Speed 12 mph    
Max Gust Speed -    
Visibility 10 miles    
Events Rain , Thunderstorm    
Averages and records for this station are not official NWS values.
T = Trace of Precipitation, MM = Missing Value Source: NWS Daily Summary

Daily Weather History Graph

Daily Weather History Graph

Search for Another Location

Airport:

Trip Planner

Search our weather history database for the weather conditions in past years. The results will help you decide how hot, cold, wet, or windy it might be!

Date:

Astronomy

May. 16, 2013 Rise Set
Actual Time 6:25 AM CDT 8:25 PM CDT
Civil Twilight 5:56 AM CDT 8:54 PM CDT
Nautical Twilight 5:22 AM CDT 9:28 PM CDT
Astronomical Twilight 4:46 AM CDT 10:04 PM CDT
Moon 11:55 AM CDT (5/16) 12:51 AM CDT (5/16)
Length of Visible Light 14h 57m
Length of Day
14h 00m
Waxing Crescent, 36% of the Moon is Illuminated
May 16
Waxing Crescent
May 17
First Quarter
May 24
Full
May 31
Last Quarter
Jun 8
New

Hourly Weather History & Observations

Time (CDT) Temp. Dew Point Humidity Pressure Visibility Wind Dir Wind Speed Gust Speed Precip Events Conditions
12:15 AM 60.8 °F 59.0 °F 94% 29.79 in 10.0 mi SE 8.1 mph - N/A   Unknown
12:35 AM 60.8 °F 59.0 °F 94% 29.79 in 10.0 mi SE 9.2 mph - N/A   Unknown
12:55 AM 60.8 °F 59.0 °F 94% 29.80 in 10.0 mi SSE 5.8 mph - 0.01 in Rain Light Rain
1:15 AM 60.8 °F 59.0 °F 94% 29.79 in 10.0 mi SE 6.9 mph - 0.01 in Rain Light Rain
1:35 AM 60.8 °F 59.0 °F 94% 29.79 in 10.0 mi SE 8.1 mph - 0.01 in   Unknown
1:55 AM 60.8 °F 59.0 °F 94% 29.81 in 10.0 mi SSW 3.5 mph - 0.01 in Thunderstorm Thunderstorm
2:15 AM 60.8 °F 59.0 °F 94% 29.78 in 7.0 mi South 11.5 mph - 0.04 in Rain Light Rain
2:35 AM 60.8 °F 59.0 °F 94% 29.78 in 10.0 mi SSE 4.6 mph - 0.04 in Rain Light Rain
2:55 AM 60.8 °F 59.0 °F 94% 29.80 in 7.0 mi Calm Calm - 0.05 in Rain Light Rain
3:15 AM 60.8 °F 59.0 °F 94% 29.80 in 10.0 mi Calm Calm - 0.02 in Rain Rain
3:35 AM 60.8 °F 59.0 °F 94% 29.78 in 10.0 mi SSE 4.6 mph - 0.02 in   Light Drizzle
3:55 AM 60.8 °F 59.0 °F 94% 29.78 in 10.0 mi South 4.6 mph - 0.02 in   Unknown
4:15 AM 60.8 °F 59.0 °F 94% 29.78 in 10.0 mi Calm Calm - N/A   Unknown
4:35 AM 60.8 °F 59.0 °F 94% 29.79 in 10.0 mi North 3.5 mph - N/A Rain Light Rain
4:55 AM 60.8 °F 59.0 °F 94% 29.79 in 7.0 mi North 4.6 mph - N/A   Unknown
5:15 AM 60.8 °F 60.8 °F 100% 29.80 in 5.0 mi NNE 3.5 mph - 0.01 in Rain Light Rain
5:35 AM 60.8 °F 60.8 °F 100% 29.80 in 7.0 mi ENE 3.5 mph - 0.01 in   Unknown
5:55 AM 60.8 °F 60.8 °F 100% 29.80 in 7.0 mi Calm Calm - 0.01 in   Unknown
6:15 AM 60.8 °F 59.0 °F 94% 29.80 in 7.0 mi ENE 3.5 mph - N/A   Unknown
6:35 AM 60.8 °F 60.8 °F 100% 29.80 in 7.0 mi East 5.8 mph - 0.01 in Rain Light Rain
6:55 AM 60.8 °F 60.8 °F 100% 29.81 in 7.0 mi East 4.6 mph - 0.01 in Rain Light Rain
7:15 AM 60.8 °F 60.8 °F 100% 29.81 in 5.0 mi East 4.6 mph - N/A Rain Rain
7:35 AM 60.8 °F 60.8 °F 100% 29.83 in 10.0 mi ENE 3.5 mph - 0.01 in Rain Rain
7:55 AM 60.8 °F 60.8 °F 100% 29.83 in 10.0 mi ENE 3.5 mph - 0.01 in Rain Light Rain
8:15 AM 62.6 °F 60.8 °F 94% 29.82 in 7.0 mi ENE 4.6 mph - 0.01 in Rain Light Rain
8:35 AM 62.6 °F 62.6 °F 100% 29.82 in 10.0 mi NE 3.5 mph - 0.01 in   Unknown
8:55 AM 64.4 °F 62.6 °F 94% 29.81 in 10.0 mi East 5.8 mph - 0.01 in   Unknown
9:15 AM 64.4 °F 62.6 °F 94% 29.82 in 10.0 mi ESE 5.8 mph - N/A   Unknown
9:35 AM 64.4 °F 62.6 °F 94% 29.83 in 10.0 mi ESE 5.8 mph - N/A   Unknown
9:55 AM 64.4 °F 60.8 °F 88% 29.84 in 10.0 mi SE 8.1 mph - N/A   Unknown
10:15 AM 64.4 °F 60.8 °F 88% 29.85 in 10.0 mi SE 5.8 mph - N/A   Unknown
10:35 AM 64.4 °F 60.8 °F 88% 29.85 in 10.0 mi SE 5.8 mph - N/A   Unknown
10:55 AM 64.4 °F 60.8 °F 88% 29.85 in 10.0 mi ESE 5.8 mph - N/A   Unknown
11:15 AM 64.4 °F 60.8 °F 88% 29.85 in 10.0 mi SE 6.9 mph - N/A   Unknown
11:35 AM 64.4 °F 60.8 °F 88% 29.85 in 10.0 mi ESE 10.4 mph - N/A   Unknown
11:55 AM 64.4 °F 60.8 °F 88% 29.85 in 10.0 mi ESE 10.4 mph - N/A   Unknown
12:15 PM 64.4 °F 60.8 °F 88% 29.85 in 10.0 mi ESE 10.4 mph - N/A   Unknown
12:35 PM 64.4 °F 60.8 °F 88% 29.84 in 10.0 mi SE 11.5 mph - N/A   Unknown
12:55 PM 64.4 °F 60.8 °F 88% 29.85 in 10.0 mi ESE 10.4 mph - N/A   Unknown
1:15 PM 64.4 °F 60.8 °F 88% 29.84 in 10.0 mi SE 9.2 mph - N/A   Unknown
1:35 PM 64.4 °F 60.8 °F 88% 29.84 in 10.0 mi ESE 10.4 mph - N/A   Unknown
2:15 PM 66.2 °F 60.8 °F 83% 29.84 in 10.0 mi East 9.2 mph - N/A   Unknown
2:35 PM 68.0 °F 60.8 °F 78% 29.84 in 10.0 mi ESE 8.1 mph - N/A   Unknown
2:55 PM 68.0 °F 60.8 °F 78% 29.84 in 10.0 mi East 5.8 mph - N/A   Unknown
3:15 PM 68.0 °F 62.6 °F 83% 29.83 in 10.0 mi SE 5.8 mph - N/A   Unknown
3:35 PM 68.0 °F 62.6 °F 83% 29.83 in 10.0 mi SE 5.8 mph - N/A   Unknown
3:55 PM 68.0 °F 62.6 °F 83% 29.83 in 10.0 mi SE 5.8 mph - N/A   Unknown
4:15 PM 68.0 °F 62.6 °F 83% 29.83 in 10.0 mi SE 6.9 mph - N/A   Unknown
4:35 PM 68.0 °F 62.6 °F 83% 29.82 in 10.0 mi SE 5.8 mph - N/A   Unknown
4:55 PM 68.0 °F 62.6 °F 83% 29.82 in 10.0 mi SE 4.6 mph - N/A   Unknown
5:15 PM 68.0 °F 62.6 °F 83% 29.81 in 10.0 mi ESE 4.6 mph - N/A   Unknown
5:35 PM 68.0 °F 62.6 °F 83% 29.81 in 10.0 mi ESE 5.8 mph - N/A   Unknown
5:55 PM 68.0 °F 62.6 °F 83% 29.81 in 10.0 mi ESE 5.8 mph - N/A   Unknown
6:15 PM 66.2 °F 62.6 °F 88% 29.81 in 10.0 mi ESE 4.6 mph - N/A   Unknown
6:35 PM 68.0 °F 62.6 °F 83% 29.80 in 10.0 mi East 4.6 mph - N/A   Unknown
6:55 PM 68.0 °F 62.6 °F 83% 29.80 in 10.0 mi ESE 4.6 mph - N/A   Unknown
7:15 PM 68.0 °F 62.6 °F 83% 29.80 in 10.0 mi East 5.8 mph - N/A   Unknown
7:35 PM 68.0 °F 62.6 °F 83% 29.80 in 10.0 mi East 5.8 mph - N/A   Unknown
7:55 PM 66.2 °F 62.6 °F 88% 29.81 in 10.0 mi East 4.6 mph - N/A   Unknown
8:15 PM 66.2 °F 62.6 °F 88% 29.81 in 10.0 mi East 3.5 mph - N/A   Unknown
8:35 PM 66.2 °F 62.6 °F 88% 29.82 in 10.0 mi East 3.5 mph - N/A   Unknown
8:55 PM 66.2 °F 62.6 °F 88% 29.83 in 10.0 mi ESE 4.6 mph - N/A   Unknown
9:15 PM 66.2 °F 62.6 °F 88% 29.83 in 10.0 mi SE 4.6 mph - N/A   Unknown
9:35 PM 66.2 °F 62.6 °F 88% 29.84 in 10.0 mi SE 4.6 mph - N/A   Unknown
9:55 PM 64.4 °F 62.6 °F 94% 29.85 in 10.0 mi ESE 4.6 mph - N/A   Unknown
10:15 PM 64.4 °F 62.6 °F 94% 29.85 in 10.0 mi East 4.6 mph - N/A   Unknown
10:35 PM 64.4 °F 62.6 °F 94% 29.85 in 10.0 mi ESE 3.5 mph - N/A   Unknown
10:55 PM 64.4 °F 62.6 °F 94% 29.85 in 10.0 mi ESE 3.5 mph - N/A   Unknown
11:15 PM 64.4 °F 62.6 °F 94% 29.84 in 10.0 mi ESE 5.8 mph - N/A   Unknown
11:35 PM 64.4 °F 62.6 °F 94% 29.84 in 10.0 mi East 6.9 mph - N/A   Unknown
11:55 PM 64.4 °F 62.6 °F 94% 29.84 in 10.0 mi ESE 8.1 mph - N/A   Unknown